Preview of NWS' New Version of Forecast
This preview is not operational and should not be used for support decisions.

Regional Weather Roundup (RWR)

Issued by National Weather Service (NWS)

                            
000
ASUS45 KBOI 250410
RWRID 

IDAHO REGIONAL WEATHER ROUNDUP
NATIONAL WEATHER SERVICE BOISE ID
1000 PM MDT WED APR 24 2019

NOTE: "FAIR" INDICATES FEW OR NO CLOUDS BELOW 12000 FEET
WITH NO SIGNIFICANT WEATHER AND/OR OBSTRUCTIONS TO VISIBILITY

IDZ012-014-250500-
SOUTHWEST IDAHO

  
CITY           SKY/WX    TMP DP  RH WIND       PRES   REMARKS
BOISE          CLEAR     61  30  31 NW5       30.09R                  
CALDWELL       CLEAR     60  29  30 NW3       30.09R                  
MOUNTAIN HOME  CLEAR     52  26  36 NW10      30.09R                  
$$

IDZ016-017-250500-
SOUTHCENTRAL IDAHO

  
CITY           SKY/WX    TMP DP  RH WIND       PRES   REMARKS
BURLEY         CLEAR     55  30  38 SW14      30.08R                  
JEROME         CLEAR     53  31  42 SW10      30.09R                  
TWIN FALLS     CLEAR     52  32  46 SW14      30.11R                  
$$

IDZ019>023-250500-
SOUTHEAST IDAHO

  
CITY           SKY/WX    TMP DP  RH WIND       PRES   REMARKS
IDAHO FALLS    PTCLDY    48  35  60 NE8       30.08R                  
POCATELLO      CLEAR     52  33  48 S12       30.08R                  
REXBURG        PTCLDY    56  20  24 CALM      30.08R                  
$$

IDZ006-010-011-018-031-032-250500-
CENTRAL IDAHO MOUNTAINS

  
CITY           SKY/WX    TMP DP  RH WIND       PRES   REMARKS
MCCALL         PTCLDY    46  24  42 NE8       30.15R                  
HAILEY         CLEAR     52  23  32 W6        30.12R                  
STANLEY          N/A     35  23  61 S6        30.18R WCI  30          
SALMON         CLEAR     52  18  26 CALM      30.13R                  
CHALLIS        CLEAR     48  19  31 NW8       30.11R                  
$$

IDZ002-004-006-007-026-250500-
NORTHERN IDAHO

  
CITY           SKY/WX    TMP DP  RH WIND       PRES   REMARKS
LEWISTON       CLEAR     59  28  30 CALM      30.17R                  
LOWELL           N/A     47  41  80 CALM      30.21                   
COEUR D'ALENE  NOT AVBL                                               
MULLAN PASS    CLEAR     38  20  48 VRB5      30.18R WCI  34          
$$